Location: Les Salelles
(44.4192°N, 4.1044°E)
Time: 15:56:25
(UTC+00:00)

Cosmos 1455 - Pass Details

Date: 20 January 2021
Orbit: 499 x 520 km, 82.5° (Epoch: 26 February)

Event Time Altitude Azimuth Distance (km) Brightness Sun altitude
Rises 17:21:08 0° 7° (N) 2,627 5.5 -8.1°
Reaches altitude 10° 17:23:48 10° 27° (NNE) 1,741 4.4 -8.5°
Maximum altitude 17:26:28 18° 71° (ENE) 1,315 3.6 -9.0°
Drops below altitude 10° 17:29:08 10° 116° (ESE) 1,739 4.5 -9.4°
Sets 17:31:48 0° 135° (SE) 2,625 5.5 -9.9°
